Location: Tauranga
(37.6860°S, 176.1670°E)
Time: 13:13:08
(UTC+13:00)

Cosmos 1515 Rocket - Pass Details

Date: 24 January 2019
Orbit: 607 x 629 km, 82.5° (Epoch: 18 February)

Event Time Altitude Azimuth Distance (km) Brightness Sun altitude
Exits shadow 21:23:49 - 11° (N) 2,683 6.4 -9.3°
Reaches altitude 10° 21:25:32 10° 16° (NNE) 2,012 5.7 -9.6°
Maximum altitude 21:29:46 44° 88° (E) 887 4.0 -10.3°
Drops below altitude 10° 21:34:04 10° 159° (SSE) 2,039 6.4 -11.0°
Sets 21:36:24 0° 165° (SSE) 2,953 7.3 -11.4°
